Date String (YYYY-MM-DD hh:mm:ss) UTC,Instrument flags,Ambient pressure (hPa),Sample flow (lpm),Bypass flow (lpm),Sample temperature (°C),Ambient temperature (°C),ASC tube jacket temperature (°C),LED temperature (°C),Box temperature (°C),Sample RH (%),Span deviation,Mass concentration (μg/m³),Mass concentration (μg/m³),Mass concentration (μg/m³)
DateTimeUTC,F1_M11,P_M11,Q1_M11,Q2_M11,T1_M11,T2_M11,T3_M11,T4_M11,T5_M11,U1_M11,ZSPAN_M11,X0_M11,X2_M11,X1_M11
2021-09-11 03:00:00,,0828.9,5.01,0.00,29.0,27.4,00.0,38.0,30.8,11.9,0000.6,0031.42,0016.24,0014.39
2021-09-11 03:01:00,,0829.0,4.99,0.00,29.0,27.7,00.0,38.0,30.9,11.8,0000.7,0031.01,0016.23,0014.36
2021-09-11 03:02:00,,0829.0,5.00,0.00,29.1,27.9,00.0,38.0,30.9,11.8,0001.2,0030.58,0016.14,0014.35
2021-09-11 03:03:00,,0828.8,5.00,0.00,29.1,28.1,00.0,38.1,31.0,11.8,0001.3,0031.57,0016.09,0014.36
2021-09-11 03:04:00,,0829.0,5.00,0.00,29.2,28.3,00.0,38.1,31.1,11.7,0001.4,0032.06,0016.05,0014.33
2021-09-11 03:05:00,,0829.0,4.98,0.00,29.2,28.4,00.0,38.1,31.2,11.7,0001.6,0031.39,0016.06,0014.31
2021-09-11 03:06:00,,0829.0,4.99,0.00,29.3,28.6,00.0,38.2,31.2,11.6,0001.7,0030.64,0015.93,0014.27
2021-09-11 03:07:00,,0829.0,5.02,0.00,29.3,27.8,00.0,38.2,31.0,11.6,0001.8,0030.42,0015.91,0014.30
2021-09-11 03:08:00,,0828.7,5.00,0.00,29.2,26.3,00.0,38.2,30.6,11.7,0001.8,0030.36,0015.96,0014.32
2021-09-11 03:09:00,,0828.9,5.00,0.00,29.1,26.3,00.0,38.2,30.6,11.6,0001.6,0030.34,0015.98,0014.32
2021-09-11 03:10:00,,0829.1,5.00,0.00,29.1,26.7,00.0,38.2,30.7,11.7,0001.8,0029.47,0016.00,0014.33
2021-09-11 03:11:00,,0829.1,4.99,0.00,29.1,27.1,00.0,38.1,30.8,11.7,0002.4,0028.48,0015.98,0014.33
2021-09-11 03:12:00,,0829.0,5.01,0.00,29.1,27.4,00.0,38.1,30.9,11.6,0002.4,0028.37,0015.88,0014.33
2021-09-11 03:13:00,,0829.1,5.00,0.00,29.1,27.7,00.0,38.1,31.0,11.6,0002.2,0028.16,0015.87,0014.31
2021-09-11 03:14:00,,0828.9,4.99,0.00,29.2,28.0,00.0,38.2,31.0,11.6,0002.0,0028.17,0015.78,0014.26
2021-09-11 03:15:00,,0829.0,5.00,0.00,29.2,28.2,00.0,38.2,31.1,11.6,0001.7,0026.90,0015.77,0014.24
2021-09-11 03:16:00,,0828.8,5.01,0.00,29.3,28.4,00.0,38.2,31.2,11.5,0000.9,0027.11,0015.74,0014.21
2021-09-11 03:17:00,,0828.9,5.01,0.00,29.4,28.5,00.0,38.2,31.2,11.4,0000.9,0026.96,0015.79,0014.18
2021-09-11 03:18:00,,0829.0,5.01,0.00,29.4,28.2,00.0,38.3,31.2,11.4,0000.9,0027.02,0015.80,0014.15
2021-09-11 03:19:00,,0829.0,4.99,0.00,29.3,26.3,00.0,38.2,30.7,11.5,0000.9,0026.67,0015.78,0014.11
2021-09-11 03:20:00,,0829.0,5.00,0.00,29.1,25.4,00.0,38.2,30.4,11.7,0001.2,0026.54,0015.71,0014.07
2021-09-11 03:21:00,,0829.0,5.01,0.00,29.0,25.7,00.0,38.2,30.4,11.6,0000.9,0027.47,0015.68,0014.05
2021-09-11 03:22:00,,0828.7,5.00,0.00,29.0,26.1,00.0,38.2,30.5,11.4,0000.6,0027.94,0015.69,0014.03
2021-09-11 03:23:00,,0828.8,5.00,0.00,29.0,26.6,00.0,38.1,30.6,11.3,0000.4,0027.02,0015.68,0014.01
2021-09-11 03:24:00,,0828.9,5.01,0.00,29.0,27.0,00.0,38.1,30.7,11.4,0000.8,0026.93,0015.70,0014.03
2021-09-11 03:25:00,,0829.0,5.00,0.00,29.0,27.4,00.0,38.1,30.8,11.5,0000.9,0026.87,0015.77,0014.02
2021-09-11 03:26:00,,0829.1,5.01,0.00,29.1,27.7,00.0,38.1,30.9,11.5,0001.0,0027.35,0015.77,0014.03
2021-09-11 03:27:00,,0828.9,4.99,0.00,29.1,27.9,00.0,38.1,31.0,11.3,0001.0,0027.20,0015.78,0014.05
2021-09-11 03:28:00,,0828.9,5.01,0.00,29.2,28.1,00.0,38.1,31.1,11.3,0001.3,0027.16,0015.76,0014.05
2021-09-11 03:29:00,,0829.0,5.00,0.00,29.2,28.3,00.0,38.2,31.1,11.2,0001.2,0027.91,0015.75,0014.04
2021-09-11 03:30:00,,0829.0,5.00,0.00,29.3,28.4,00.0,38.2,31.2,11.2,0001.0,0028.19,0015.72,0014.03
2021-09-11 03:31:00,,0828.9,5.00,0.00,29.3,28.6,00.0,38.2,31.3,11.2,0000.8,0028.47,0015.68,0014.03
2021-09-11 03:32:00,,0829.0,5.00,0.00,29.4,28.7,00.0,38.2,31.3,11.2,0001.0,0027.87,0015.63,0014.01
2021-09-11 03:33:00,,0828.7,5.01,0.00,29.4,28.1,00.0,38.3,31.2,11.2,0001.4,0027.62,0015.62,0014.00
2021-09-11 03:34:00,,0829.0,4.99,0.00,29.3,26.1,00.0,38.3,30.5,11.2,0001.4,0028.64,0015.63,0013.98
2021-09-11 03:35:00,,0828.7,5.00,0.00,29.1,25.4,00.0,38.2,30.4,11.4,0001.3,0028.21,0015.56,0013.94
2021-09-11 03:36:00,,0829.0,5.01,0.00,29.0,25.7,00.0,38.2,30.5,11.5,0001.4,0027.50,0015.49,0013.94
2021-09-11 03:37:00,,0829.1,4.99,0.00,29.0,26.2,00.0,38.2,30.6,11.4,0001.6,0028.08,0015.47,0013.92
2021-09-11 03:38:00,,0828.9,4.99,0.00,29.0,26.7,00.0,38.1,30.6,11.4,0001.6,0028.15,0015.45,0013.89
2021-09-11 03:39:00,,0828.8,5.00,0.00,29.0,27.1,00.0,38.1,30.7,11.5,0001.2,0028.11,0015.40,0013.90
2021-09-11 03:40:00,,0828.7,5.01,0.00,29.0,27.4,00.0,38.1,30.8,11.4,0001.4,0027.82,0015.35,0013.89
2021-09-11 03:41:00,,0828.8,4.99,0.00,29.1,27.7,00.0,38.1,30.9,11.3,0001.3,0028.45,0015.36,0013.89
2021-09-11 03:42:00,,0828.8,5.00,0.00,29.1,27.9,00.0,38.1,31.0,11.4,0001.2,0028.48,0015.37,0013.88
2021-09-11 03:43:00,,0829.0,5.00,0.00,29.2,28.1,00.0,38.2,31.1,11.3,0001.0,0028.04,0015.34,0013.85
2021-09-11 03:44:00,,0829.1,5.00,0.00,29.2,28.3,00.0,38.2,31.1,11.2,0000.7,0027.93,0015.32,0013.83
2021-09-11 03:45:00,,0829.2,5.00,0.00,29.3,28.4,00.0,38.2,31.2,11.1,0000.8,0027.70,0015.34,0013.85
2021-09-11 03:46:00,,0829.2,5.01,0.00,29.3,28.6,00.0,38.2,31.2,11.0,0000.5,0028.39,0015.40,0013.86
2021-09-11 03:47:00,,0829.0,4.99,0.00,29.4,28.7,00.0,38.3,31.3,10.9,0000.2,0028.88,0015.43,0013.87
2021-09-11 03:48:00,,0829.2,5.00,0.00,29.4,28.1,00.0,38.3,31.2,10.9,-000.2,0028.08,0015.40,0013.86
2021-09-11 03:49:00,,0829.0,5.00,0.00,29.3,25.9,00.0,38.3,30.6,10.9,-000.2,0027.46,0015.35,0013.84
2021-09-11 03:50:00,,0828.8,5.00,0.00,29.1,25.3,00.0,38.3,30.4,11.0,-000.1,0027.47,0015.30,0013.81
2021-09-11 03:51:00,,0828.6,4.99,0.00,29.0,25.7,00.0,38.2,30.5,11.1,0000.1,0027.47,0015.27,0013.79
2021-09-11 03:52:00,,0828.6,5.00,0.00,29.0,26.2,00.0,38.2,30.5,11.1,0000.1,0027.09,0015.22,0013.76
2021-09-11 03:53:00,,0828.6,5.01,0.00,29.0,26.7,00.0,38.1,30.7,11.0,0000.3,0027.45,0015.22,0013.75
2021-09-11 03:54:00,,0828.8,5.01,0.00,29.0,27.1,00.0,38.1,30.7,11.0,0000.1,0027.61,0015.20,0013.73
2021-09-11 03:55:00,,0828.8,5.00,0.00,29.1,27.4,00.0,38.1,30.8,11.0,0000.4,0028.46,0015.13,0013.70
2021-09-11 03:56:00,,0828.8,4.99,0.00,29.1,27.7,00.0,38.1,30.9,11.0,0000.4,0027.20,0015.01,0013.65
2021-09-11 03:57:00,,0828.7,5.00,0.00,29.1,27.9,00.0,38.1,31.0,11.0,0000.4,0026.56,0014.92,0013.62
2021-09-11 03:58:00,,0828.8,5.00,0.00,29.2,28.1,00.0,38.2,31.0,11.0,0000.7,0026.12,0014.88,0013.61
2021-09-11 03:59:00,,0829.1,5.02,0.00,29.2,28.3,00.0,38.2,31.1,10.9,0000.7,0026.99,0014.90,0013.58
